Theta_e
317 318 319 320 319 313 317 317 314 317 316 315 317 316 317 321 323 320 327 336 339 338 337 338 337 337 338 333 334 338 338 339 338 336 335 333 332 331 328 327 327 328 329 329 329 330 332 332 331
318 319 320 311 316 315 314 313 316 316 315 314 313 316 320 325 324 328 332 333 338 338 337 338 337 334 332 329 334 338 338 339 336 336 334 332 331 330 327 326 325 327 328 328 328 328 330 329 329
318 318 316 313 310 314 314 314 314 314 313 315 317 317 321 324 322 326 331 336 339 338 338 338 336 333 330 330 336 338 337 338 336 336 332 331 329 328 325 322 323 323 324 325 326 326 328 325 326
318 315 309 311 314 313 314 313 312 313 313 314 317 321 323 325 323 330 337 338 339 338 338 338 336 333 332 331 335 337 336 337 337 334 327 326 323 321 319 319 317 319 319 320 319 322 324 322 322
314 308 313 312 313 313 311 311 310 313 313 314 315 321 327 327 328 332 336 339 340 339 339 339 338 337 334 333 336 336 336 336 337 331 327 323 319 318 318 317 315 313 312 309 308 310 315 319 317
311 306 311 314 313 312 312 312 312 312 311 314 316 318 322 325 330 332 336 339 337 336 338 337 338 337 336 332 333 335 335 335 336 330 327 325 323 322 321 321 320 317 314 310 305 301 303 307 310
311 307 310 311 311 314 313 309 311 310 310 314 312 317 318 320 331 333 338 340 337 335 336 337 338 339 337 335 333 334 334 334 334 330 328 325 324 323 322 322 321 320 319 319 318 314 304 301 301
306 306 311 310 311 314 313 312 310 310 312 309 311 315 323 320 332 334 337 340 339 335 336 335 338 337 338 336 334 334 334 334 334 330 329 326 324 323 322 321 321 320 320 318 317 316 314 311 305
306 306 308 311 312 314 312 313 312 309 310 310 309 311 311 322 334 337 338 340 340 338 337 338 338 338 337 336 335 335 334 333 333 329 328 327 325 324 323 321 321 320 320 319 317 317 316 316 315
308 305 309 309 310 313 312 312 311 312 310 311 310 309 311 320 332 332 331 332 336 338 338 335 334 339 338 336 336 336 334 334 333 329 328 326 325 325 324 321 321 320 320 319 317 316 316 315 314
309 309 310 309 312 312 312 313 310 309 311 309 310 309 309 316 328 329 328 329 330 331 331 332 332 336 336 337 336 336 335 334 333 330 329 327 326 325 324 321 321 320 319 319 318 316 315 315 314
312 311 311 311 312 312 313 312 312 308 310 309 307 307 308 310 317 323 322 321 322 324 327 329 331 333 333 336 336 335 335 334 333 329 328 328 326 324 323 322 321 319 318 318 317 315 313 313 313
312 312 312 312 311 311 312 312 311 310 309 306 305 307 307 308 311 317 318 316 317 319 321 324 329 333 334 335 337 335 336 335 334 330 328 328 326 324 323 322 320 318 316 316 314 312 310 310 310
311 312 311 311 312 312 312 311 311 310 305 306 306 306 305 306 308 309 310 312 313 313 314 315 319 330 331 331 337 336 336 335 333 330 328 328 326 324 323 320 319 316 312 312 312 305 304 306 308
311 313 311 311 311 312 311 312 310 308 305 306 306 305 304 305 307 309 311 311 312 312 313 313 315 322 328 330 332 334 334 333 332 330 328 327 325 324 321 319 316 313 306 304 301 299 304 307 307
313 310 314 313 310 312 311 314 313 305 306 306 304 303 303 303 305 308 310 310 310 311 313 313 313 319 326 328 330 330 330 329 330 327 326 325 323 320 317 315 312 307 299 296 295 300 304 303 304
310 313 313 313 310 311 311 313 312 305 305 306 304 302 302 301 303 306 308 309 309 311 313 314 316 319 322 323 325 324 323 323 325 323 322 321 318 316 318 310 307 300 296 294 294 301 303 300 301
313 313 312 314 313 311 311 310 309 308 305 306 304 302 302 302 302 304 307 308 309 310 312 313 314 316 318 319 318 317 316 316 318 317 315 316 316 309 307 306 301 295 293 292 294 303 303 299 300
312 313 314 313 312 313 311 311 312 308 306 305 304 303 303 303 301 304 305 307 308 309 310 312 313 314 314 314 312 309 309 309 311 308 307 310 306 306 305 300 294 291 292 292 292 298 302 299 296
313 314 313 311 311 312 311 312 310 309 307 308 308 306 305 302 300 301 303 305 307 307 308 309 311 312 311 311 309 307 304 300 303 301 301 301 299 298 296 292 291 291 291 291 291 291 290 288 293
311 312 312 314 312 310 310 314 311 309 308 307 308 309 307 304 301 301 300 303 305 305 306 307 307 306 307 307 305 303 297 298 294 292 293 292 292 291 290 290 289 289 290 289 289 289 289 286 286
314 310 312 313 315 316 312 318 314 311 310 308 309 309 306 301 301 301 301 300 303 304 306 306 305 302 303 304 303 301 296 291 289 290 288 288 289 288 288 289 289 289 288 287 287 287 287 286 285
314 311 312 314 314 313 313 315 315 313 312 310 311 308 303 300 301 301 301 301 302 303 303 302 301 300 300 300 298 296 292 292 288 287 287 287 288 288 288 288 288 287 287 286 286 285 285 285 285
310 311 311 309 311 316 314 314 320 314 313 312 310 309 303 299 300 300 301 300 302 301 302 300 299 298 298 297 295 293 292 289 286 286 286 286 286 286 287 287 286 285 285 285 285 284 284 284 283
311 313 317 316 315 319 311 313 318 313 313 311 309 306 301 298 299 298 297 298 300 300 299 298 297 294 295 293 293 292 289 287 286 285 285 285 285 286 285 285 285 284 284 284 284 284 283 283 282
311 313 316 317 317 317 312 315 315 310 308 306 304 303 298 298 298 297 297 298 299 299 296 296 295 294 293 293 292 291 290 287 285 285 285 285 285 285 285 284 284 283 283 283 283 283 282 282 281
312 314 314 315 299 312 315 313 312 310 309 308 305 300 298 298 296 296 296 297 298 298 296 296 294 293 292 292 292 291 288 286 286 285 285 285 285 284 284 283 283 282 282 283 282 282 281 281 280
311 311 316 316 318 319 315 314 317 314 313 309 305 301 297 296 295 294 294 294 296 297 296 295 294 293 291 292 291 289 287 286 286 285 285 284 284 284 283 282 282 282 282 282 282 282 281 281 280
312 313 314 316 314 315 314 317 309 312 312 308 305 301 297 294 293 292 292 293 294 295 294 293 292 291 291 290 289 287 286 286 285 285 284 284 283 283 282 282 281 281 281 281 281 280 280 280 280
311 313 315 319 317 314 313 319 309 308 307 305 304 301 295 293 292 290 290 291 291 291 292 292 291 291 290 289 288 286 285 285 285 284 284 283 283 282 282 281 281 281 280 280 281 280 280 280 280
Wind_Speed
6 4 1 4 4 5 1 3 2 2 2 4 3 7 8 3 2 3 1 11 11 21 19 17 16 15 14 15 17 15 15 15 16 15 15 13 14 14 16 17 18 17 17 17 17 17 17 19 20
5 2 3 2 4 3 4 3 5 3 6 7 6 3 6 2 1 3 5 12 16 21 19 18 15 14 14 15 16 14 13 14 14 14 13 14 14 15 17 17 17 17 17 17 16 15 18 18 20
2 2 3 4 3 4 4 4 4 2 7 2 4 5 2 1 0 3 4 13 22 23 19 18 16 15 15 15 14 13 13 13 13 14 14 15 15 16 16 16 17 17 17 18 17 16 18 18 17
1 5 4 4 2 3 4 5 4 6 1 4 4 6 2 3 1 4 12 18 20 21 19 17 16 14 14 15 14 12 14 14 12 13 13 15 15 16 17 16 17 17 17 17 17 17 16 16 15
5 3 4 3 3 2 3 4 7 4 3 3 2 4 1 2 4 8 17 19 18 18 18 16 15 13 13 14 13 13 13 14 15 12 13 15 16 17 18 18 18 18 18 17 17 16 14 13 13
4 3 4 2 3 2 2 3 4 3 3 4 5 4 3 1 4 10 16 20 18 17 17 15 14 14 13 13 12 12 13 14 15 13 14 15 17 18 19 19 19 19 19 18 17 16 15 13 12
6 4 5 4 4 2 4 6 5 5 5 2 9 6 2 2 7 12 17 20 19 15 16 16 16 14 12 12 13 12 12 14 15 14 15 16 17 17 18 18 19 19 18 19 18 16 15 14 13
5 4 4 2 5 5 3 3 3 5 2 4 1 6 5 7 12 16 19 20 20 17 18 16 18 16 14 13 12 12 13 14 17 15 14 15 15 16 16 17 18 18 17 16 17 16 15 15 14
3 5 2 4 6 5 2 3 1 2 6 2 1 5 4 21 18 20 20 20 20 18 18 17 16 15 15 14 14 13 13 16 17 18 17 14 15 15 14 14 15 15 14 12 13 15 15 15 14
4 4 8 5 4 4 3 2 6 4 4 1 1 1 10 20 23 23 20 19 18 17 17 15 16 17 14 14 16 17 17 18 20 21 19 18 16 14 15 14 12 11 9 10 10 12 12 13 14
2 4 5 3 2 2 3 2 4 5 3 7 9 9 7 12 20 21 21 21 20 18 17 17 18 18 16 18 19 20 20 21 22 22 20 19 18 16 14 13 11 11 10 9 7 8 9 10 11
2 1 2 2 2 2 3 1 3 7 6 3 8 9 8 9 15 20 22 20 19 18 17 17 17 20 18 19 20 21 22 23 25 25 23 21 19 17 15 13 10 9 10 11 8 7 9 10 11
1 1 1 2 4 3 2 5 7 7 2 3 8 9 9 9 14 18 19 17 17 17 16 16 16 19 17 15 23 23 23 22 24 25 24 22 21 19 16 14 12 10 8 10 9 8 8 10 12
1 1 4 4 4 3 4 4 4 6 6 6 9 10 9 10 17 16 17 18 18 16 16 16 16 20 18 21 22 24 24 22 24 25 25 25 23 21 20 17 14 11 9 11 9 10 13 16 17
1 3 6 5 3 5 5 7 10 5 6 8 9 8 8 12 17 22 24 21 18 17 15 15 18 18 18 21 22 24 23 24 26 28 27 26 23 21 21 18 16 13 10 11 12 15 18 20 22
2 4 2 3 5 2 6 10 5 7 10 11 11 8 9 9 15 20 20 18 17 16 15 14 16 19 19 20 21 23 24 24 25 27 27 28 27 25 23 21 16 15 12 14 16 18 21 24 25
5 3 5 8 7 3 4 8 2 4 8 10 9 10 9 7 13 21 20 18 17 16 16 14 16 19 21 21 22 22 22 23 23 23 26 26 26 24 23 22 19 16 16 17 17 21 24 27 28
6 4 4 6 2 3 6 13 9 4 9 12 9 9 11 12 17 25 22 20 18 17 17 16 17 20 22 24 24 24 24 21 22 23 23 26 24 23 24 23 21 18 19 21 20 24 27 27 29
4 4 5 4 3 2 8 10 18 8 7 9 11 12 16 18 10 24 23 20 19 18 19 20 21 23 25 26 26 23 24 24 25 25 25 26 26 23 23 24 22 21 22 23 23 25 26 24 24
3 4 6 6 5 6 10 16 11 10 8 13 18 17 18 11 9 17 24 23 23 23 22 23 24 24 26 27 27 25 27 24 26 26 26 25 25 24 24 24 24 23 23 22 21 24 27 21 9
6 7 5 7 6 4 6 13 8 9 12 12 15 20 13 17 15 13 20 26 26 26 27 26 26 27 28 28 27 28 25 28 27 27 28 28 27 27 27 27 25 24 23 24 22 21 23 26 25
6 9 7 5 1 5 3 14 7 8 12 8 18 20 10 10 13 15 22 24 30 27 27 27 28 28 28 29 30 35 33 29 25 31 31 31 29 29 27 27 25 24 25 25 26 23 22 22 21
6 6 7 2 3 3 1 3 2 3 5 11 16 11 9 11 17 19 26 28 29 27 28 26 26 27 29 32 33 30 26 29 34 36 35 35 32 29 27 26 25 25 25 26 26 26 26 25 25
6 5 5 4 2 6 10 8 29 2 6 6 4 3 7 9 11 11 19 24 27 25 27 27 29 29 30 30 29 30 34 40 39 39 38 37 35 31 28 26 25 25 26 25 25 25 24 24 24
4 6 1 3 1 8 4 6 17 9 10 6 8 7 7 7 9 12 14 21 24 25 26 28 30 29 31 29 31 31 33 33 39 41 42 41 38 33 29 27 26 26 25 25 24 24 24 21 21
7 7 6 7 4 4 2 8 6 7 9 7 6 4 5 7 7 11 16 22 26 26 27 27 28 29 31 33 33 33 37 36 33 35 40 38 37 34 29 27 26 25 25 24 23 23 22 19 19
5 5 4 5 2 2 5 8 9 10 10 11 3 3 6 5 6 8 14 20 23 25 27 29 30 31 33 34 35 35 37 37 39 40 39 38 36 34 30 27 27 25 24 22 21 21 20 18 17
6 6 4 2 3 6 5 6 9 8 9 7 6 7 5 6 7 6 12 19 23 25 24 24 28 32 34 35 37 39 42 42 42 41 40 38 36 34 31 28 27 26 24 22 20 20 17 16 15
4 3 2 5 5 4 3 7 7 6 3 7 8 6 8 8 8 8 9 15 23 26 26 28 29 28 30 31 31 34 39 42 43 42 40 38 35 31 29 27 26 24 23 21 19 18 16 15 14
2 9 8 4 6 4 2 11 3 4 3 4 7 3 5 7 7 7 11 17 21 26 28 28 30 32 33 32 33 35 39 41 42 40 38 37 35 31 29 26 25 23 22 19 16 16 14 12 11
Wind_Direction
354 334 309 34 55 65 223 242 287 132 70 341 81 116 126 68 121 205 153 156 159 166 166 166 157 152 147 143 141 137 129 121 108 100 93 91 86 84 82 77 74 74 74 74 71 72 69 67 64
354 351 53 77 89 77 269 264 187 200 149 148 76 69 47 75 98 146 151 191 175 167 167 167 161 155 150 146 147 140 133 127 115 105 96 91 91 85 77 77 77 76 76 72 73 73 73 69 72
34 37 84 92 109 171 192 216 203 126 158 135 95 59 98 73 110 170 188 164 167 166 166 165 162 158 153 152 149 145 140 133 129 109 103 97 89 86 83 79 78 76 76 74 71 76 75 75 79
131 23 36 85 189 227 204 187 199 141 147 55 121 66 1 327 240 155 155 156 164 166 167 164 164 162 160 159 158 153 149 144 135 116 104 97 92 86 81 79 78 78 75 75 75 78 83 84 77
53 58 61 82 282 271 244 182 166 149 131 105 110 168 47 8 113 146 161 158 165 168 168 162 164 165 167 168 162 158 158 153 145 129 114 105 97 90 84 80 77 76 76 75 76 79 83 83 75
45 89 65 173 260 289 291 187 175 138 141 144 84 112 201 247 160 151 166 162 166 171 172 173 180 175 169 174 169 165 162 158 153 138 122 112 103 97 91 84 79 77 75 73 71 72 74 76 72
112 85 183 181 199 187 220 153 179 157 141 193 152 125 257 269 158 154 168 167 166 173 181 182 182 185 177 176 176 172 168 166 161 147 129 120 113 106 98 89 81 75 72 69 68 69 69 68 66
103 91 131 181 187 225 183 143 127 145 149 115 122 175 198 206 162 159 162 179 178 180 183 191 191 192 187 183 182 178 175 175 168 154 133 122 119 112 104 99 94 82 74 73 72 74 75 73 71
113 66 175 197 151 250 185 141 213 86 114 68 338 159 247 157 154 148 154 161 172 175 183 187 190 198 199 195 190 184 185 180 173 161 151 152 143 132 123 112 107 99 89 81 75 71 72 71 70
86 114 210 200 193 220 192 176 179 153 127 20 18 16 143 155 160 155 159 159 167 174 179 188 201 198 202 203 198 184 183 182 177 172 166 162 156 150 142 134 123 118 108 97 82 76 78 76 74
153 172 200 219 202 208 186 238 194 137 235 204 192 183 169 164 173 170 173 174 175 177 182 187 202 204 206 200 202 187 189 186 183 181 176 171 166 162 155 148 140 129 127 112 107 86 74 73 75
125 249 195 195 212 160 196 156 224 188 224 309 197 166 163 169 181 185 183 182 179 180 181 186 193 202 205 204 199 196 194 190 187 185 182 178 173 167 161 150 141 133 131 121 104 79 73 74 73
155 261 264 190 208 250 135 231 222 237 203 50 142 153 171 175 187 194 192 190 190 192 191 190 193 199 204 208 197 194 195 195 192 189 188 183 180 171 162 153 147 143 132 113 98 82 79 82 84
172 243 284 269 224 227 192 253 152 251 145 137 157 181 185 183 184 186 193 196 199 202 206 206 202 207 204 205 195 193 192 195 193 189 190 194 189 179 170 156 147 140 127 110 91 82 95 93 95
61 329 326 245 230 224 167 280 235 191 160 177 198 199 197 207 197 199 199 202 206 211 215 213 208 198 201 203 195 186 186 185 186 190 193 193 186 176 164 154 145 135 122 101 98 101 106 105 102
42 47 346 282 144 249 143 269 253 169 160 207 209 209 210 215 211 211 208 207 204 206 207 205 201 192 192 191 182 179 178 178 183 181 184 186 177 171 158 150 137 130 128 113 111 114 113 107 107
2 244 218 311 204 122 169 266 263 150 191 221 214 213 220 219 223 213 208 206 204 199 195 188 184 184 189 185 174 171 169 171 170 174 176 173 165 160 148 146 137 133 121 114 117 115 119 110 110
208 220 241 244 207 167 215 265 264 198 202 232 227 221 223 219 218 206 201 201 199 195 191 185 184 184 184 177 168 161 155 153 159 160 158 153 156 152 149 139 134 132 120 106 114 119 123 113 116
150 199 235 248 246 205 235 239 259 226 216 234 236 221 225 223 202 203 197 193 191 190 186 185 185 184 181 173 166 160 152 152 152 152 155 154 154 153 149 136 136 130 120 108 108 117 122 128 125
186 214 248 298 232 191 269 260 243 240 221 221 229 229 224 203 173 182 192 191 192 188 187 187 188 187 185 180 172 168 160 155 153 151 149 147 147 144 140 137 132 126 121 116 110 109 103 90 149
218 213 239 232 316 241 305 270 226 246 229 239 240 237 223 203 182 177 183 191 192 189 190 190 189 186 187 184 176 166 157 147 143 144 139 141 143 139 138 133 127 121 115 107 103 99 100 95 76
223 202 201 239 97 257 10 294 200 228 239 225 244 241 221 181 183 179 182 188 193 190 192 193 192 187 188 187 182 169 155 147 148 147 143 140 140 138 135 131 127 119 111 107 102 101 101 101 97
222 137 177 195 195 327 185 271 106 194 251 254 252 245 207 185 180 184 189 185 186 184 186 187 183 188 186 182 175 163 153 154 154 149 146 143 141 140 136 132 127 121 115 109 106 103 97 92 92
142 85 58 59 68 271 194 174 283 181 217 254 321 266 217 188 185 182 178 170 174 176 179 178 182 184 189 185 175 171 165 156 152 150 147 146 141 139 137 134 129 122 117 113 107 102 96 91 88
115 103 313 331 9 246 329 208 252 309 293 246 283 284 230 185 166 160 162 166 169 170 172 176 176 173 178 176 180 179 166 158 156 156 153 148 145 143 142 138 132 127 122 117 112 105 98 94 91
189 162 160 205 208 274 299 240 251 239 274 269 257 314 159 172 174 177 171 166 170 172 172 173 172 170 177 183 187 183 175 165 161 158 155 152 148 145 144 140 135 129 126 121 114 109 103 98 94
191 196 170 82 84 4 233 290 295 266 278 269 293 166 191 182 169 168 164 167 170 174 177 176 173 173 178 183 183 179 173 172 168 167 162 156 151 148 148 146 141 136 132 127 122 114 109 103 97
162 161 94 78 196 236 273 265 234 282 278 328 272 243 210 153 152 162 165 166 173 177 177 178 178 178 178 182 181 178 177 179 175 169 165 160 156 154 153 150 146 142 138 134 128 120 115 107 98
136 170 166 131 160 192 293 258 215 233 272 299 300 235 184 174 168 162 167 174 175 176 173 175 176 174 177 179 176 176 179 180 176 172 166 162 158 157 155 153 150 147 144 140 133 123 118 108 102
248 191 175 148 207 225 147 268 175 212 273 292 307 247 162 170 165 156 157 170 176 177 176 174 175 177 181 180 177 177 179 180 177 173 169 165 162 162 160 158 155 152 150 144 137 131 125 114 109